CZ-3B DEB, 40187

Orbit data source: Space-Track

CZ-3B DEB, 40187 is space debris in HEO originally from a launch on Mon, 19 Dec 2011 UTC launched from the Xichang Space Center, China (XSC). Debris objects in space refer to the collection of defunct objects orbiting the Earth. Examples of debris include non-operational satellites, rocket bodies, and fragments generated from explosions, collisions, or faulty payload assembly.

Loading next visibility...
Identifier
40187, 2011-077L
Orbit
HEO
Last TLE update
1 day ago
Origin
Manufacturer
CALT
Mission
Spacecraft
Bus & Motor
Unknown
Mass
Unknown
Launch date (UTC)
2011-12-19 (14 years ago)
Launch vehicle
Unknown
Launch site
Xichang Space Center, China (XSC)
Object type
Payload
Rocket body
Debris
Shape & HBR
Unknown
Radar Cross Section
Medium (>0.1 m² and <1 m²)

Expand to show TLE details & history

TLE from 1 day ago
0 CZ-3B DEB
1 40187U 11077L   25183.12182485 -.00000225  00000-0 -41287-2 0  9991
2 40187  26.0654  86.9566 7357889 244.2326  25.8433  1.90946554 87907
Epoch: 2025-07-02T02:55Z
TLE epoch observation values (Epoch: 2025-07-02T02:55:25.667Z)
Latitude
0.00035°
Longitude
122.73017°
Altitude
12,180.154 km
Speed
5.332 km/s
True Right ascension
05h 47m 58s
True Declination
0° 00' 01"
Sunlit
Object was in daylight at epoch
Visualization orbit readout
Latitude
14.85657°
Longitude
155.2076°
Altitude
28,955.979 km
Speed
2.835 km/s
Apparent Right ascension
07h 40m 12s
Apparent Declination
7° 25' 41"
Sunlit
Object is in daylight
Visualization observer readout
Local Sidereal Time
17:30:13
Azimuth
320.039° NNW
Elevation
-33.952°
Doppler factor
1
Orbital elements
Apogee altitude
41,266.704 km
Perigee altitude
874.067 km
Semi-major axis
27,448.523 km
Eccentricity
0.73579
Inclination
26.0654°
RAAN
86.9566°
Arg. of periapsis
244.2326°
True anomaly
Unknown
Mean anomaly
25.8433°
Eccentric anomaly
Unknown
Mean motion
0.47727 °/min
Orbital period
754.29 mins
BSTAR
-0.0041287
Loading maneuver chart data...
Loading SW <> Apogee altitude chart data...
Loading historical data...
Loading historical data...
Loading historical data...
Loading historical data...
Loading historical data...
Loading historical data...
Loading historical data...

CZ-3B DEB Visibility forecast

Observer location: undefined°, undefined°

Span
Click to sort rows by Start time (UTC) header in descending order
Start Az.
Max El. time (UTC)
Max El. Az.
Max El.
End time (UTC)
End Az.
703 mins2025-07-03 16:13:39.329Z174.182° S2025-07-03 22:39:39.329Z191.579° SSW43.506°2025-07-04 03:56:39.329Z145.3° SSE
|